Temp
22 21 21 21 20 21 21 21 22 21 21 21 21 21 21 21 22 22 20 19 19 17 17 17 17 16 16 15 15 15 15 16 16 16 16 15 14 14 13 13 12 12 12
23 22 21 21 21 21 20 20 21 21 20 21 21 21 21 21 21 21 20 20 19 18 17 17 17 16 16 16 16 15 15 15 15 15 16 15 14 14 13 13 12 12 12
22 22 22 21 22 21 20 20 20 21 21 21 20 20 21 21 21 21 21 20 19 18 18 17 17 16 17 17 16 15 15 15 15 15 16 15 14 14 13 13 12 12 12
22 21 22 22 20 21 20 20 20 20 20 20 20 20 20 20 20 20 20 20 19 19 18 17 17 16 16 17 16 15 15 15 15 15 15 15 14 14 13 13 13 12 12
20 20 19 20 20 20 20 20 20 20 21 21 20 20 20 20 20 20 20 19 19 19 19 18 17 16 16 16 16 15 14 15 15 15 15 14 14 14 13 13 12 12 12
18 20 19 18 19 21 19 18 18 18 20 21 21 20 19 19 19 19 19 19 19 18 18 18 17 16 16 16 15 15 14 14 14 14 15 14 14 13 13 13 12 12 12
18 19 19 18 18 18 18 17 17 17 18 19 19 19 20 18 18 19 19 19 18 18 18 18 17 16 16 16 15 15 15 14 14 14 14 14 14 13 13 13 12 12 12
19 18 18 19 17 17 17 17 17 17 18 18 19 18 19 21 19 18 18 19 20 19 19 18 18 16 16 15 15 15 15 14 14 14 14 14 14 14 13 13 12 12 12
19 18 17 20 18 17 18 17 16 17 17 16 18 20 21 21 23 21 18 18 19 19 19 19 17 17 16 15 15 14 14 15 14 14 14 14 14 14 13 13 13 12 12
21 19 17 18 18 17 19 18 17 17 17 17 16 18 19 21 22 23 21 19 17 17 17 17 16 16 16 16 15 14 14 14 14 14 14 13 14 14 13 13 13 12 12
21 21 18 19 19 20 19 20 17 16 17 18 17 18 18 19 20 21 22 21 18 17 17 16 16 17 16 16 15 14 14 14 14 13 13 13 13 14 13 13 13 13 12
19 19 20 20 19 20 19 18 18 16 16 17 18 18 19 19 19 20 20 21 22 20 19 18 17 16 15 15 15 15 14 14 14 13 13 13 14 14 14 13 13 13 12
17 17 18 19 18 19 18 18 17 16 16 17 17 18 18 19 20 20 19 20 21 21 19 19 18 17 16 15 15 15 14 14 14 13 13 13 13 14 13 13 13 13 13
16 17 17 17 17 17 17 17 17 16 16 16 17 18 18 19 19 20 20 19 20 21 20 18 18 17 16 15 15 14 14 14 14 14 13 13 14 14 14 13 13 13 13
13 14 16 16 16 16 16 16 16 17 17 17 17 18 18 18 19 19 19 19 19 18 20 19 18 17 16 15 14 13 13 14 14 14 13 14 14 14 14 13 13 13 13
9 10 13 15 16 16 16 15 16 16 17 16 17 17 17 17 18 18 18 18 18 18 19 20 19 17 16 15 14 13 13 13 13 14 13 14 14 14 14 13 13 13 13
5 7 9 13 15 16 15 15 15 16 16 16 16 16 17 17 17 17 17 17 17 17 17 18 18 16 16 15 13 13 13 13 13 13 13 13 13 13 13 13 13 13 13
3 3 4 6 7 10 11 12 14 15 15 15 16 15 15 16 16 15 15 16 16 15 15 15 16 16 15 15 13 12 12 13 12 13 13 12 13 12 13 13 13 13 13
1 1 3 2 2 3 6 8 9 11 14 15 15 15 15 14 14 15 14 14 14 14 14 14 16 16 14 14 12 12 12 12 12 12 12 12 12 12 13 13 13 13 13
0 0 0 1 0 0 2 3 6 9 10 12 14 14 14 14 14 14 14 14 14 14 14 15 15 14 13 12 12 12 11 12 12 12 12 12 12 12 12 11 11 11 12
-1 -1 -0 -1 -1 -1 -1 1 3 5 6 7 9 11 13 14 14 14 14 14 14 14 14 14 15 13 12 12 12 12 11 11 11 11 11 11 11 11 11 11 12 12 13
-1 -1 -1 -1 -2 -2 -2 1 1 1 1 1 1 5 7 9 8 12 13 14 14 14 14 15 15 13 13 12 11 12 12 11 11 11 11 10 10 10 10 11 12 11 12
-1 -1 -2 -1 -1 -3 -3 -1 -1 -1 -1 -1 -1 -1 1 1 4 6 9 12 13 13 14 14 14 13 13 12 11 11 11 12 12 11 10 6 7 8 8 9 10 8 10
-2 -2 -2 -3 -2 -3 -4 -3 -1 -2 -2 -2 -3 -3 -2 -2 -0 2 5 7 11 12 12 13 13 13 13 13 12 12 12 12 10 10 9 3 3 2 2 3 3 4 6
-2 -3 -3 -3 -4 -4 -4 -4 -2 -2 -1 -3 -4 -4 -4 -4 -3 0 2 5 8 9 11 11 12 12 12 12 13 12 11 8 3 5 6 6 0 -1 -1 -0 -0 0 1
-3 -3 -3 -3 -4 -4 -5 -4 -4 -4 -3 -3 -3 -4 -4 -5 -4 -3 -2 -0 2 1 2 3 4 5 7 9 11 11 11 10 5 2 5 4 -1 -1 -3 -3 -2 -1 -1
Height
782 784 787 790 792 795 797 798 799 801 804 806 808 810 811 811 812 812 812 815 817 820 822 824 827 829 829 829 833 837 838 841 842 844 847 850 852 854 856 857 860 862 864
776 781 783 786 789 792 794 797 798 800 802 804 805 807 809 810 810 811 810 812 815 817 819 821 823 826 826 826 827 832 835 837 840 843 844 848 851 854 855 857 859 862 864
770 775 779 782 784 787 792 794 796 798 800 801 803 804 806 807 808 809 810 810 811 814 815 818 819 821 823 824 825 828 830 834 836 840 842 846 849 852 855 857 858 861 864
766 769 772 776 782 785 787 790 792 794 797 798 801 802 803 804 805 806 808 809 808 810 811 814 815 817 819 821 822 824 827 829 832 835 839 843 847 850 853 856 857 860 863
762 765 768 772 775 781 783 786 788 790 793 794 797 800 801 801 802 803 804 805 806 808 808 808 811 813 815 817 819 820 824 826 830 832 835 839 844 847 850 854 856 859 862
755 759 764 767 771 774 778 781 785 788 790 791 792 794 797 799 799 800 800 802 802 803 804 806 807 808 810 812 814 817 819 823 825 828 832 835 840 843 847 851 855 857 861
747 752 756 761 764 767 771 776 781 784 787 788 791 792 793 795 796 796 796 796 797 798 799 801 802 804 805 807 809 811 814 818 820 824 827 832 835 840 844 847 852 855 858
737 742 748 755 758 763 766 770 775 780 782 784 785 789 790 788 788 789 790 790 791 793 794 795 798 799 800 801 802 804 807 811 815 818 823 825 831 835 839 844 848 852 855
734 735 739 746 752 756 759 763 769 774 777 778 781 782 781 780 778 778 782 784 786 787 789 790 792 793 795 796 796 798 801 806 810 813 818 822 825 830 835 840 843 848 852
732 734 737 740 745 749 753 756 761 766 772 774 778 777 776 775 774 772 775 779 782 782 783 786 787 788 789 790 791 792 794 799 804 809 813 817 821 825 830 835 839 843 847
727 734 733 738 738 741 744 749 752 759 762 766 770 773 773 773 775 776 772 772 776 777 778 780 781 782 783 783 785 785 786 791 797 801 807 811 815 820 824 829 834 838 842
713 728 730 734 737 735 739 743 747 752 755 758 759 764 766 767 768 771 772 769 768 768 769 772 775 776 777 778 779 779 781 784 791 797 802 806 809 814 819 823 828 832 837
711 723 725 728 733 730 735 739 744 745 748 750 749 751 763 762 754 762 767 766 765 764 764 766 770 770 772 772 773 774 776 779 786 791 796 800 805 808 813 818 822 826 830
714 721 720 721 728 726 731 735 737 741 743 743 746 741 753 758 757 753 758 762 760 758 757 759 763 765 766 767 767 768 770 773 778 782 788 793 798 802 807 812 816 820 823
720 718 720 718 723 720 728 729 732 733 736 737 739 741 745 749 749 748 751 755 755 756 750 753 756 759 761 761 762 763 764 766 770 775 780 785 791 796 801 805 810 814 818
722 718 718 719 715 718 724 721 726 728 728 729 731 736 737 741 739 741 743 746 748 749 747 746 749 753 755 755 757 757 759 760 762 766 772 778 784 789 794 798 803 807 812
715 716 718 717 711 718 720 713 719 722 722 723 727 729 729 732 735 736 738 739 740 742 740 739 744 746 747 748 750 750 752 754 756 759 764 770 776 782 787 792 796 801 805
725 725 721 714 712 715 709 707 713 715 717 718 720 723 723 724 727 729 732 730 731 734 736 736 737 738 740 741 743 743 745 746 747 749 755 762 769 774 780 785 789 793 797
731 726 714 712 716 716 708 710 713 711 712 713 715 716 717 719 719 721 721 721 723 726 727 729 729 730 732 735 737 737 738 740 741 743 749 756 763 768 772 776 781 785 789
733 723 724 724 725 724 719 718 714 711 710 710 711 711 712 713 712 713 713 714 716 717 719 720 721 723 725 726 730 731 734 734 736 738 745 749 755 759 763 768 772 776 779
743 738 739 735 733 729 728 720 717 715 712 709 708 708 707 707 707 706 706 707 709 710 710 711 711 715 716 719 721 723 726 730 731 734 738 743 747 751 755 758 762 767 769
757 753 747 745 743 736 740 727 721 719 716 712 711 707 704 701 698 700 700 700 700 700 699 701 701 704 706 711 715 716 719 722 726 728 732 735 740 742 745 749 753 758 761
765 761 758 755 754 744 744 730 732 725 720 719 718 714 707 706 699 695 691 690 691 691 691 689 691 694 697 703 707 709 711 713 714 719 724 730 733 736 739 742 747 750 751
770 769 767 765 760 755 747 742 737 732 728 724 724 719 711 710 704 697 689 686 682 683 682 685 686 688 691 696 697 699 702 706 709 712 716 722 729 733 735 739 743 743 744
779 776 774 769 764 761 755 748 740 737 735 732 730 726 722 714 707 701 691 685 678 675 674 676 680 681 684 687 690 692 694 698 704 706 709 711 722 730 736 738 739 740 741
787 782 779 775 772 767 761 754 749 747 744 739 733 727 720 718 712 707 697 689 680 676 678 676 677 675 677 678 682 682 681 686 692 700 701 708 716 720 734 740 738 738 743
Wind_Speed
22 21 20 18 20 18 19 17 17 17 15 14 13 12 10 10 7 5 7 8 13 20 17 14 20 12 12 14 13 16 16 18 17 15 14 13 14 16 15 15 14 14 13
22 20 23 21 22 20 19 19 19 16 16 17 16 13 12 11 11 9 10 7 10 18 20 18 17 17 18 16 14 18 19 20 19 18 16 15 16 17 18 17 16 15 14
24 22 22 23 22 20 19 21 19 16 16 14 15 15 14 13 13 11 11 11 11 15 19 22 20 20 19 21 17 19 20 22 22 20 18 18 18 19 19 18 17 16 15
26 24 21 22 24 18 20 19 19 17 18 16 17 16 16 16 15 15 13 13 12 12 14 21 23 21 21 25 19 21 22 24 24 22 19 19 23 21 20 19 19 18 16
29 22 27 25 20 21 22 21 19 19 17 17 17 16 15 15 15 13 15 16 17 13 14 14 22 25 23 26 23 24 24 26 25 24 21 22 25 23 22 21 20 19 18
33 27 24 25 26 22 22 22 22 23 17 17 16 16 17 17 16 16 16 16 16 18 18 14 15 24 27 27 26 25 27 26 26 26 25 26 26 26 24 23 22 21 20
32 35 28 25 26 25 25 24 25 22 19 17 11 13 14 14 17 18 18 19 20 21 20 20 17 18 23 29 31 28 29 28 29 27 28 27 28 28 26 25 24 23 22
31 34 32 26 26 25 23 24 27 20 21 20 13 7 5 15 23 24 23 23 22 20 23 20 19 20 21 23 32 34 34 32 33 32 33 31 30 30 27 27 25 25 23
31 30 33 28 26 27 25 27 27 24 19 20 22 12 5 7 10 15 18 21 23 22 22 16 23 21 19 22 26 34 37 37 36 36 35 34 31 31 29 28 27 26 26
29 26 27 28 26 26 26 24 28 27 22 17 19 26 23 17 6 6 10 13 20 20 17 23 19 21 23 22 24 30 36 39 37 36 36 35 33 32 32 30 29 28 27
26 25 26 27 29 28 27 24 29 30 29 22 20 18 23 21 20 13 9 8 14 16 19 21 22 22 19 21 24 27 31 41 42 40 39 36 35 33 32 32 30 29 28
22 21 21 25 26 26 24 28 25 30 29 28 22 22 19 16 15 13 10 13 12 15 19 20 22 20 22 22 22 25 32 35 40 39 40 38 35 33 35 34 32 30 30
16 18 23 25 23 24 24 25 27 29 34 29 32 25 25 27 23 18 19 15 11 19 16 16 19 19 19 24 24 26 27 35 38 39 41 42 38 35 35 35 34 32 30
5 10 16 16 27 25 27 28 28 31 29 31 29 24 31 30 24 19 20 16 9 11 13 13 17 19 19 22 22 24 29 35 38 40 44 44 42 38 36 35 36 35 33
7 5 6 14 17 21 29 31 29 29 31 29 27 28 31 30 26 26 27 25 17 10 11 19 18 18 20 22 25 24 31 35 38 40 43 47 45 41 38 36 36 36 35
9 10 9 12 13 14 21 24 28 29 30 27 27 27 28 30 27 27 27 27 23 21 12 19 15 18 18 20 22 26 27 32 39 42 45 49 46 43 41 39 36 36 35
20 15 13 9 7 13 14 14 25 29 28 27 28 29 28 30 27 26 27 26 25 25 12 21 21 21 23 20 21 25 27 30 38 44 44 46 45 44 42 40 38 36 36
23 22 20 20 20 14 11 9 15 26 29 28 27 26 29 28 31 29 29 30 29 25 23 18 22 22 21 20 22 25 28 35 37 47 44 42 42 43 41 39 38 38 37
30 30 37 36 33 29 25 19 15 12 15 27 29 28 29 28 30 31 31 28 28 27 26 22 21 22 20 19 21 26 27 32 37 35 36 38 42 43 42 42 40 40 39
33 40 40 39 35 36 31 26 20 17 17 15 21 27 29 33 33 32 30 31 29 26 26 22 22 16 16 17 22 20 19 26 28 29 31 30 30 31 32 33 36 38 40
35 35 31 37 38 40 37 32 25 21 19 18 20 18 27 31 31 32 29 31 30 28 24 23 21 15 15 12 21 18 21 21 22 30 30 31 32 35 35 35 32 34 40
30 30 33 31 38 39 37 31 27 26 22 25 25 22 19 14 11 30 38 37 34 33 28 24 21 17 20 20 20 23 23 13 5 27 31 29 33 36 39 40 38 40 46
27 30 31 30 29 40 42 37 30 27 29 28 30 33 28 27 24 24 23 35 47 42 37 30 25 24 22 26 25 24 25 24 19 20 31 22 23 23 24 29 33 34 39
27 27 29 29 28 35 42 38 28 27 29 31 30 32 35 33 34 31 28 28 32 41 38 35 25 25 25 26 30 32 32 28 20 23 31 8 19 12 16 17 15 17 22
25 25 26 30 32 33 42 42 32 28 26 27 29 29 30 34 35 32 24 20 15 21 26 29 35 28 27 28 28 26 24 19 4 11 28 18 15 15 13 14 14 13 13
23 24 25 29 31 32 38 39 36 29 26 26 26 31 35 33 36 31 26 22 15 16 16 11 9 11 16 22 30 27 31 23 11 5 22 17 17 14 6 11 14 17 18
Wind_Direction
209 204 208 209 204 209 211 205 214 201 211 219 221 234 232 240 245 228 198 187 199 203 211 213 212 212 205 207 224 224 220 215 211 215 214 207 202 194 187 178 174 171 171
207 208 209 209 207 212 211 214 220 207 217 217 217 227 236 232 235 238 227 217 212 216 219 222 222 220 219 200 217 221 223 218 214 213 217 212 208 200 192 184 180 177 181
207 205 206 214 211 205 212 215 222 216 225 219 226 225 230 235 240 234 239 240 223 220 226 229 224 226 223 208 217 215 218 215 211 214 224 214 208 201 199 194 186 187 189
210 204 211 204 213 215 212 212 213 213 227 219 225 231 231 239 234 241 237 243 229 216 218 228 227 229 219 221 217 213 217 215 209 208 213 213 206 203 201 199 194 195 192
206 206 208 209 203 213 213 212 215 211 218 224 219 234 237 241 246 240 244 241 237 241 227 228 225 227 223 220 226 216 211 213 215 212 211 205 204 203 203 204 200 201 199
208 207 210 209 207 213 208 210 208 212 223 228 234 222 232 237 244 246 244 245 237 239 238 232 219 224 228 224 225 226 211 210 210 213 212 205 208 206 207 205 205 205 204
208 205 206 206 208 207 208 211 208 213 217 218 225 246 250 241 244 245 246 241 239 234 230 235 224 220 227 229 226 226 216 211 206 206 211 211 209 209 207 206 209 208 209
202 202 202 207 208 208 205 207 207 213 218 210 206 209 244 247 240 243 244 244 244 244 242 237 235 230 224 224 224 225 223 210 210 205 208 207 209 209 209 210 210 213 212
205 202 203 205 206 203 208 208 205 211 211 204 210 209 213 239 265 215 224 237 239 239 244 238 239 239 233 227 228 225 221 217 212 207 207 209 207 209 209 212 213 215 218
207 205 205 207 207 208 218 204 205 209 208 205 212 227 246 272 288 274 208 224 230 237 240 240 237 241 239 239 232 222 221 216 213 211 210 211 211 210 211 212 215 217 221
208 212 203 212 212 213 208 212 201 207 208 209 209 224 233 241 248 262 274 217 211 227 233 238 241 243 235 234 233 227 230 216 212 210 210 213 215 218 212 215 219 220 223
188 215 218 219 221 219 213 211 209 206 205 213 209 218 219 210 228 241 250 257 258 233 217 224 231 230 238 233 234 233 223 215 213 213 213 214 216 220 217 215 218 222 224
192 215 225 228 230 222 218 217 217 211 211 211 209 211 238 228 207 220 232 254 258 254 216 230 241 237 235 241 238 229 226 211 212 214 216 218 219 219 221 221 219 220 226
52 221 218 226 233 227 228 221 215 220 220 216 232 221 226 236 228 220 232 238 253 252 239 217 234 233 237 239 236 226 222 216 215 216 217 220 220 220 222 222 223 223 223
328 292 262 230 235 236 231 226 229 223 226 224 228 225 225 230 224 232 231 239 240 250 245 236 224 238 241 244 236 231 225 225 221 217 220 219 221 220 222 223 224 226 227
358 348 319 281 236 233 245 243 241 241 232 227 225 228 227 231 235 233 224 228 232 240 254 253 249 248 245 237 239 237 238 235 225 217 218 217 220 222 222 224 226 228 229
27 21 8 347 276 248 251 258 247 242 239 228 235 230 229 237 236 233 226 226 233 235 237 253 257 255 241 232 240 244 241 239 229 224 217 218 220 225 225 225 227 230 232
36 37 38 37 25 11 7 6 269 239 238 235 234 231 234 239 238 229 227 226 222 224 230 243 253 247 240 244 241 242 238 238 226 221 216 217 221 226 227 228 229 233 234
38 38 41 37 26 16 8 354 325 302 261 243 242 238 240 237 236 231 223 221 222 225 222 230 247 244 227 230 231 238 231 227 220 215 211 219 227 229 230 231 233 235 237
32 39 37 36 30 21 17 2 344 322 303 291 264 246 246 244 235 233 224 224 224 221 221 225 231 223 208 225 226 216 213 209 199 204 206 211 218 224 232 235 239 241 239
31 38 34 35 32 25 18 16 10 5 359 343 302 312 255 251 250 243 238 237 229 221 215 220 222 212 201 199 204 202 203 201 198 208 211 217 222 229 231 233 241 240 242
31 32 34 34 28 28 18 33 27 25 28 23 5 344 329 355 312 258 250 241 228 223 221 222 217 212 214 215 206 205 206 194 195 217 213 217 227 230 229 232 236 247 245
32 33 32 30 25 26 17 31 29 31 30 27 20 15 6 355 346 329 280 256 244 236 229 219 211 214 215 214 209 207 208 208 208 206 202 197 207 210 218 226 241 239 235
30 30 29 27 26 19 18 24 23 27 30 30 25 20 15 4 0 349 331 288 255 238 234 231 225 224 223 222 213 214 209 207 205 198 199 155 194 178 194 202 220 234 236
27 28 29 27 25 21 19 18 22 20 15 17 20 22 15 9 4 359 353 329 312 220 229 228 232 227 225 224 221 213 202 175 167 185 191 173 168 145 159 173 172 172 196
26 26 26 27 25 22 19 19 19 15 9 6 9 11 14 10 9 9 12 3 4 352 308 280 257 240 237 234 232 218 204 195 175 162 198 163 149 147 126 160 162 157 156